EHI
40 42 41 42 50 59 59 52 44 38 31 25 20 19 16 11 9 14 23 25 19 14 13 13 14 15 14 11 7 7 8 7 5 3 2 1 1 1 4 9 11 11 11
50 54 52 49 58 67 65 57 49 44 35 26 19 18 17 14 13 19 27 28 21 15 14 14 13 14 15 13 9 8 8 7 6 4 3 2 2 2 4 9 12 12 12
59 63 62 60 66 73 70 63 60 55 43 32 22 19 22 23 25 30 34 32 25 19 17 15 13 13 17 17 13 10 8 8 8 7 6 5 4 4 4 6 10 13 14
58 63 65 64 67 71 70 68 68 63 52 40 30 25 26 29 35 40 39 34 28 23 21 18 14 14 16 18 17 14 12 11 11 11 10 9 8 7 5 4 7 11 13
52 59 65 66 66 67 68 71 72 67 58 46 36 30 27 28 35 40 39 35 30 26 25 23 19 15 15 15 17 18 17 16 16 16 15 14 13 10 7 5 6 9 11
47 56 66 69 68 66 67 73 75 69 60 50 41 35 29 30 35 38 37 33 31 30 31 30 26 21 18 16 18 22 24 24 23 21 19 17 17 14 10 8 7 7 7
45 54 65 71 71 68 70 76 77 72 64 55 48 42 36 34 37 39 37 32 31 33 39 41 39 34 28 25 26 29 30 30 28 25 22 21 20 16 13 11 9 6 5
42 49 61 68 69 70 74 79 80 75 68 59 52 48 44 37 36 38 36 32 28 33 45 53 51 45 38 35 35 34 33 33 31 28 26 25 22 18 16 14 11 7 5
35 42 54 62 64 68 74 79 82 79 72 65 58 53 49 43 37 36 35 32 28 33 48 58 56 50 42 39 39 37 35 37 36 32 29 28 24 20 18 17 13 9 6
31 37 45 52 56 61 68 76 82 80 75 71 65 59 55 50 43 39 37 35 32 37 48 56 54 50 46 42 38 36 36 39 39 33 29 28 24 20 19 19 17 13 9
30 34 40 45 50 54 61 72 80 80 76 75 72 69 66 62 55 48 44 43 43 46 50 53 51 51 51 48 40 35 35 38 38 33 28 25 21 18 17 19 20 18 15
28 33 39 44 49 55 62 71 77 78 77 77 79 79 78 73 65 58 54 53 54 55 54 51 50 50 52 49 42 35 34 36 35 31 26 22 19 17 17 17 18 18 17
26 31 40 47 53 60 67 72 74 74 74 76 79 81 79 74 68 63 62 60 59 58 54 51 48 46 47 47 43 38 35 35 34 31 26 22 19 19 19 19 18 17 16
31 32 39 48 55 61 67 70 71 70 70 72 74 74 72 68 64 63 64 63 59 54 51 48 45 41 39 41 42 40 36 34 33 31 28 23 19 19 20 21 21 20 19
37 38 43 50 55 59 63 65 68 70 71 71 70 68 64 62 63 64 64 61 56 51 48 46 44 40 33 31 33 35 34 32 31 31 28 22 18 15 15 17 19 20 21
40 41 47 53 56 58 58 59 62 66 70 70 67 63 60 60 61 62 61 57 52 50 47 44 44 41 32 22 20 25 29 29 29 30 27 19 14 11 10 10 11 13 16
38 39 45 52 56 56 55 54 55 57 61 62 59 55 55 56 56 56 55 52 50 48 46 44 45 42 31 17 11 15 22 24 24 25 23 17 13 13 13 10 8 8 9
35 35 38 44 50 51 50 49 49 49 50 51 48 45 46 48 48 50 50 49 48 47 45 43 43 39 29 14 5 8 16 19 18 18 18 18 17 17 18 17 14 12 11
32 33 33 38 44 46 45 45 45 45 44 42 40 38 39 39 41 45 47 45 44 43 41 39 39 37 28 14 3 5 14 18 16 13 14 15 16 14 14 18 21 18 15
31 32 34 38 41 42 42 42 40 41 41 41 39 38 37 37 39 41 42 41 40 38 34 32 34 35 28 15 3 4 13 19 18 14 11 9 8 7 6 12 19 20 18
32 33 36 38 39 39 39 38 37 37 39 40 39 37 35 35 36 36 35 35 35 33 29 27 29 29 25 14 4 3 10 16 18 16 11 7 3 2 2 6 12 15 14
33 33 34 34 34 35 36 36 35 36 36 36 35 33 31 29 29 29 28 28 28 27 25 23 22 22 20 14 7 3 4 8 13 13 11 7 2 0 0 2 4 6 6
33 32 31 31 31 32 33 33 32 34 33 31 29 27 25 23 23 23 22 22 22 22 21 18 16 16 18 17 12 5 1 2 6 8 7 4 1 0 1 1 1 2 3
29 29 29 30 31 32 32 31 30 29 28 26 23 20 17 17 18 18 18 17 17 17 16 14 13 13 15 17 14 9 4 4 5 6 5 2 1 2 4 4 3 5 7
23 24 26 29 30 31 31 31 29 26 24 21 17 14 12 12 14 14 13 11 10 9 9 9 10 10 11 12 11 8 6 7 7 6 5 4 4 7 9 8 7 8 9
20 22 25 27 28 29 30 29 27 25 23 19 14 11 10 11 12 11 9 7 5 4 3 5 7 7 8 7 6 4 4 6 7 6 6 6 8 10 11 9 8 8 9
Wind_Speed
14 13 12 13 12 11 9 8 7 7 5 4 4 4 3 3 3 3 5 5 5 5 4 3 4 3 2 3 3 2 3 2 2 2 2 2 3 3 3 3 3 4 5
15 14 13 13 13 11 10 9 8 8 6 4 3 3 3 3 3 2 4 5 4 4 5 4 4 4 3 3 3 2 2 2 3 2 1 1 1 2 4 3 3 3 3
16 15 14 13 13 13 12 10 9 9 8 6 5 4 3 2 3 3 4 4 5 5 3 4 4 3 4 4 4 3 3 2 2 2 2 1 1 1 2 3 2 2 2
15 15 14 13 13 13 13 10 9 9 8 6 6 6 5 4 4 3 4 4 4 5 5 4 4 3 3 4 5 4 3 3 2 1 1 2 1 1 1 1 2 3 3
16 17 16 14 14 14 13 11 10 8 8 6 5 5 4 4 3 4 4 4 4 5 5 5 4 4 3 3 3 3 3 2 2 2 2 2 2 3 2 2 1 1 2
14 14 15 13 12 13 13 12 11 9 8 7 6 5 4 3 4 4 5 5 4 4 5 5 4 4 3 3 3 3 4 3 2 1 2 2 2 2 2 2 2 2 2
11 11 13 14 12 13 13 13 12 10 10 9 7 6 5 4 4 4 5 5 4 4 5 5 4 4 3 3 3 3 3 3 3 3 2 2 2 1 1 1 1 2 1
9 11 12 12 12 13 13 13 13 11 11 10 8 6 6 5 4 5 4 4 4 5 5 5 5 5 4 4 3 3 4 4 4 4 3 2 2 1 2 1 1 1 2
5 7 9 10 11 11 11 12 12 12 11 11 9 7 7 6 5 5 5 4 3 3 5 5 5 5 5 4 4 3 4 3 4 4 4 3 2 2 2 2 2 2 2
5 6 7 7 9 10 9 11 12 11 10 10 9 9 8 7 5 4 5 4 3 3 3 4 5 5 4 5 4 4 4 4 4 3 3 3 3 2 2 3 2 2 2
3 4 5 7 9 10 10 10 11 11 10 10 9 7 8 7 6 4 4 4 3 3 3 3 4 5 5 5 4 5 4 5 4 4 4 4 3 2 2 2 2 2 2
3 3 4 4 4 6 9 9 10 11 10 8 8 7 6 6 6 6 4 4 4 4 4 4 5 5 5 4 5 6 5 5 5 4 4 4 3 3 3 2 3 2 3
4 5 4 4 3 3 4 7 8 9 9 8 7 7 7 7 6 6 5 5 4 4 4 5 5 5 4 4 5 5 5 5 5 5 4 4 3 3 3 3 3 3 3
5 5 5 4 3 3 3 4 5 6 7 7 7 7 6 6 5 5 5 4 4 4 4 4 4 4 4 4 4 4 4 4 4 4 4 4 4 4 4 3 3 3 3
5 5 5 4 4 4 3 3 3 3 4 5 5 5 4 4 4 4 4 3 4 4 4 4 4 4 4 4 4 4 5 4 4 4 4 4 4 5 4 4 3 3 3
4 5 5 5 4 4 3 3 2 2 3 3 3 3 3 3 3 3 3 2 3 3 3 4 4 4 3 2 3 3 3 3 4 4 3 4 4 5 6 6 5 4 4
3 4 4 3 3 2 2 2 2 2 3 3 3 3 2 2 2 2 3 3 4 3 3 3 3 3 2 2 2 3 3 4 3 4 4 4 4 4 4 6 6 6 7
3 3 3 3 2 2 2 2 3 2 1 2 2 2 2 2 2 2 2 3 3 3 3 3 3 2 2 2 3 4 4 4 4 4 4 4 3 3 3 4 4 4 4
3 3 3 3 3 3 3 3 3 2 1 2 2 2 2 1 1 2 2 2 1 2 2 2 2 2 2 2 3 4 4 4 4 4 4 3 3 3 3 3 4 4 3
3 3 3 3 3 4 3 2 1 2 1 1 2 2 2 1 0 1 1 1 1 1 1 1 1 2 2 2 2 3 3 3 3 3 2 2 2 2 1 2 3 4 4
3 3 3 3 3 3 3 2 1 1 2 2 2 1 1 0 0 1 1 1 1 1 2 2 2 2 2 2 1 1 2 3 3 3 2 2 2 2 2 3 3 4 4
3 3 3 3 3 2 2 2 2 2 2 2 2 2 2 1 1 1 1 1 1 2 2 1 2 1 2 2 2 2 3 4 3 3 2 1 3 4 4 4 4 5 4
2 2 2 3 3 2 2 2 2 2 2 2 1 1 1 1 1 1 1 1 1 2 2 2 2 2 1 2 3 4 4 4 3 2 2 2 3 4 4 6 7 5 3
2 1 1 2 2 2 2 2 2 2 1 1 0 0 0 0 0 1 1 1 1 1 1 1 2 2 1 0 0 1 1 2 3 3 2 3 5 4 4 4 5 4 3
1 1 1 1 1 1 1 1 1 1 1 0 0 1 1 1 0 1 2 1 1 1 1 2 1 2 2 1 1 1 2 2 2 3 3 3 3 3 3 3 2 2 2
1 2 2 1 1 1 1 1 1 2 1 0 1 2 1 0 1 1 1 4 2 1 0 2 2 2 1 1 2 3 3 4 4 3 4 4 4 4 3 3 3 2 3
Wind_Direction
168 164 165 160 158 156 158 163 167 157 166 172 172 175 176 178 172 171 161 164 181 177 178 171 167 181 184 185 185 175 201 203 210 233 245 242 217 212 210 215 214 200 197
170 166 170 169 165 161 162 167 171 167 175 174 172 178 172 182 175 171 154 169 183 177 188 176 185 184 183 184 189 187 201 221 204 207 220 257 271 248 217 205 214 207 192
172 170 174 174 170 167 170 175 172 169 181 174 176 178 167 186 172 170 167 182 182 181 191 175 202 183 184 180 191 192 197 217 225 210 195 208 227 248 256 215 202 191 202
167 171 176 177 175 172 173 169 166 167 173 176 181 185 182 188 178 176 172 179 188 189 185 183 195 197 206 174 194 188 202 209 223 227 209 226 212 207 257 264 214 198 206
172 175 179 178 178 173 171 167 161 165 168 180 187 193 195 186 173 171 165 180 194 198 191 184 187 200 208 192 200 177 197 208 217 217 207 222 224 225 220 245 252 229 204
174 173 175 170 175 173 169 166 163 168 170 180 184 186 197 185 175 173 170 187 192 200 198 189 190 202 208 202 197 195 203 216 229 241 245 226 221 224 216 228 245 246 231
170 167 171 170 173 173 170 166 165 171 175 181 188 184 193 193 187 185 188 192 192 196 195 194 186 199 200 203 198 199 214 211 222 231 251 252 253 258 243 224 252 259 240
171 171 175 172 174 176 172 168 168 173 178 184 189 187 190 197 199 204 202 198 198 191 182 186 185 192 197 208 199 208 209 208 217 228 232 239 238 248 246 218 223 268 270
160 163 169 168 171 179 175 169 167 174 181 185 184 187 191 198 198 198 206 207 204 195 175 185 191 196 202 211 203 213 215 204 211 220 224 230 226 228 236 232 225 219 245
177 164 163 170 169 180 180 174 168 173 179 183 187 189 194 197 198 203 194 205 205 200 171 193 200 201 204 210 211 216 214 211 213 212 216 229 232 226 225 224 221 222 227
150 143 156 163 171 175 180 182 169 171 180 185 186 189 185 193 195 201 202 199 202 199 191 206 218 209 206 209 212 221 211 215 217 219 213 218 229 237 246 234 229 230 226
114 125 124 133 156 171 171 170 170 174 178 181 182 188 184 185 191 198 201 199 201 200 202 212 223 220 212 208 217 228 220 215 214 218 221 226 227 230 252 252 246 237 226
89 94 94 99 117 136 152 164 169 174 175 177 178 181 188 190 193 195 195 200 203 208 213 215 217 222 218 213 224 231 228 225 219 216 217 225 226 240 241 238 243 244 244
65 72 81 76 86 115 113 128 154 168 167 169 178 185 192 191 191 194 197 200 202 208 215 220 222 223 225 222 223 230 229 232 231 227 222 220 220 233 238 240 242 248 252
68 69 72 69 67 69 80 98 122 135 152 157 170 182 186 181 190 194 192 195 200 211 212 222 228 224 227 230 227 226 227 229 237 235 221 220 219 223 227 237 228 232 234
85 77 73 67 59 53 57 67 91 105 124 142 150 148 161 166 178 183 178 187 207 219 217 218 223 225 229 216 225 236 239 230 235 241 231 224 215 216 217 225 224 223 227
104 95 86 84 72 57 63 82 70 81 96 105 114 135 157 168 174 189 185 194 206 214 218 218 225 225 229 231 223 237 246 240 234 240 246 251 238 223 223 226 223 226 231
92 84 85 89 95 78 75 88 89 78 95 113 123 133 152 158 172 191 201 207 209 212 225 224 223 222 233 235 228 233 231 241 239 236 235 236 251 258 251 240 234 230 234
73 73 69 67 66 65 59 74 95 116 129 106 89 81 94 138 182 207 218 216 206 207 219 225 216 220 242 248 237 237 238 235 238 238 243 226 226 257 256 240 239 235 240
68 65 61 57 56 55 57 57 73 95 94 87 83 86 80 80 211 181 220 219 203 209 214 223 214 216 227 241 239 245 246 242 241 231 224 213 218 240 236 237 246 244 240
67 66 64 56 55 52 58 45 41 52 55 65 66 70 73 67 144 131 150 203 218 202 206 219 222 215 210 202 206 215 250 270 262 247 234 222 210 223 229 239 242 248 262
63 62 65 65 59 51 64 55 44 36 48 62 58 47 35 336 45 79 217 203 223 242 213 218 245 229 185 182 202 219 242 275 282 277 278 254 214 216 228 235 251 254 258
64 58 67 76 68 64 79 76 49 44 52 62 57 39 29 26 27 317 271 237 209 239 248 231 235 239 217 183 195 206 231 254 265 295 322 276 228 215 225 235 246 252 240
53 51 84 94 82 67 61 63 69 69 72 88 65 329 188 194 299 288 287 286 277 243 253 275 276 276 258 88 88 221 243 251 251 257 260 247 243 244 243 236 235 230 232
24 26 89 111 109 96 86 82 86 83 71 43 314 286 270 238 64 359 351 327 348 276 250 273 270 273 285 330 337 314 291 281 272 254 234 227 226 225 225 224 220 222 226
67 63 58 69 91 88 76 70 84 89 82 327 289 288 281 232 153 114 45 32 14 36 180 244 259 286 298 304 301 302 292 286 272 237 232 228 227 223 221 220 218 222 232